Погода в Габиевском

Россия / Свердловская область     56°29′04″N   60°55′02″E
темп.,
°C
ветер,
м/с
пор.,
м/с
влажн.,
%
обл.,
%
осадки,
мм/ч
давл.,
гПа
погр.,
м
16 мая, вс
вс1623:00+19ссз41166100 0.6 1020416
02:00+17зюз247494 0.1 102083
05:00+17зюз41269100 0.1 1020235
08:00+23з411495 0.0 1019421
11:00+29з58283 0.0 10191589
14:00+31з58195 0.0 10193480
17:00+30з572044 0.0 10183687
20:00+26зюз49345 0.0 1018277
17 мая, пн
пн1723:00+20зюз37504 0.0 1018114
02:00+18зюз311530 0.0 1018187
05:00+17зюз310580 0.0 1019184
08:00+23зюз4124123 0.0 1019584
11:00+28зюз612275 0.0 10183169
14:00+30зсз61021100 0.0 10173891
17:00+30з6102396 0.0 10163972
20:00+26з511355 0.0 1015726
18 мая, вт
вт1823:00+20зюз3106284 0.6 1016228
02:00+17з387773 0.1 1016146
05:00+16зсз310774 0.1 1016218
08:00+19зсз5959100 0.0 1016592
11:00+24сз610358 0.0 10161918
14:00+25сз69284 0.0 10152440
17:00+25сз582912 0.0 10152935
20:00+19с4851100 0.0 10181087
19 мая, ср
ср1923:00+16ссв4863100 0.1 10211008
02:00+11ссв487833 0.0 1023641
05:00+11св4769100 0.0 1025997
08:00+12всв35591 0.0 1026893
11:00+16всв344621 0.0 10261256
14:00+20всв233596 0.0 10251535
17:00+20всв223413 0.0 10251661
20:00+17юв22475 0.0 102425
20 мая, чт
чт2023:00+12юв26645 0.0 1026120
02:00+10ююз257199 0.0 102681
05:00+9ю2773100 0.0 1027127
08:00+16ююз364734 0.0 1026380
11:00+22ююз23319 0.0 10241211
14:00+26юз242770 0.0 10222148
17:00+27зюз44255 0.0 10212402
20:00+22з25420 0.0 102185